Project,Study,Ord_Occ,Event_Num,Cast_ID,Date_Time_UTC,Date_Time_PST,Lat_Dec,Lon_Dec,Sta_ID,Line,Sta,Depth,Pressure,PrQ,Temp1,Temp1Q,Temp2,Temp2Q,TempAve,Salt1,Salt1Q,Salt1_Corr,Salt2,Salt2Q,Salt2_Corr,SaltAve_Corr,Ox1,Ox1Q,Ox1_CruiseCorr,Ox1_StaCorr,Ox2,Ox2Q,Ox2_CruiseCorr,Ox2_StaCorr,OxAve_StaCorr,Ox1uM,Ox1uM_CruiseCorr,Ox1uM_StaCorr,Ox2uM,Ox2uM_CruiseCorr,Ox2uM_StaCorr,OxAveuM_StaCorr,FluorV,FluorQ,EstChl_CruiseCorr,EstChl_StaCorr,ISUSV,ISUSQ,EstNO3_CruiseCorr,EstNO3_StaCorr,SigThetaTS1,SigThetaTS1Q,SigThetaTS2,SigThetaTS2Q,BAT,XMiss,TransQ,pH,pHQ,SPAR,SPARQ,PAR,PARQ,PoT1,PoT2,DynHt,SVA,OxSat1,OxSat2,BTL_Depth,BTL_Temp,SaltB,OxB,OxBuM,Chl-a,Phaeo,NO3,NO2,NH4,PO4,SIL
CalCOFI,2007SR,013,14,2007_013d,15-Jul-2020 13:06:11,15-Jul-2020 05:06:11,31.18042,-120.91950,093.3 080.0,093.3,080.0,2.000,2.014,,19.2752,,19.2747,,19.2750,33.5360,,33.5362,33.5362,,33.5378,33.5370,5.1843,,5.3994,5.3685,3.8619,,5.2783,4.1659,4.7672,226.143,235.5826,224.7956,168.459,387.5687,169.8226,197.3091,0.0340,,,0.0685,0.3290,,0.0000,0.239,23.8328,,23.8330,,0.6618,84.7514,,8.171,,1.3579E+01,,4.0972E-01,,19.2748,19.2743,0.0024,,97.997,73.000,2,19.266,33.5199,5.411,236.15,0.096,0.019,0.0,0.00,0.09,0.22,1.49
CalCOFI,2007SR,013,14,2007_013d,15-Jul-2020 13:06:18,15-Jul-2020 05:06:18,31.18042,-120.91950,093.3 080.0,093.3,080.0,3.000,3.021,,19.2755,,19.2750,,19.2753,33.5361,,33.5363,33.5364,,33.5380,33.5372,5.1790,,5.3938,5.3630,3.8635,,5.2821,4.1696,4.7663,225.911,235.3404,224.5574,168.529,387.0012,169.9683,197.2629,0.0348,,,0.0745,0.3102,,0.0000,0.000,23.8328,,23.8331,,0.6615,84.7584,,8.171,,1.4923E+01,,2.9978E-01,,19.2750,19.2745,0.0083,,97.898,73.031,,,,,,,,,,,,
CalCOFI,2007SR,013,14,2007_013d,15-Jul-2020 13:06:21,15-Jul-2020 05:06:21,31.18042,-120.91950,093.3 080.0,093.3,080.0,4.000,4.028,,19.2760,,19.2758,,19.2759,33.5362,,33.5364,33.5364,,33.5380,33.5372,5.1796,,5.3945,5.3636,3.8666,,5.2895,4.1767,4.7702,225.936,235.3665,224.5831,168.661,387.0624,170.2431,197.4131,0.0353,,,0.0781,0.3132,,0.0000,0.000,23.8327,,23.8330,,0.6616,84.7547,,8.171,,1.5270E+01,,2.4207E-01,,19.2753,19.2751,0.0123,,97.910,73.089,,,,,,,,,,,,
CalCOFI,2007SR,013,14,2007_013d,15-Jul-2020 13:06:22,15-Jul-2020 05:06:22,31.18042,-120.91950,093.3 080.0,093.3,080.0,5.000,5.035,,19.2761,,19.2755,,19.2758,33.5362,,33.5364,33.5364,,33.5380,33.5372,5.1803,,5.3952,5.3643,3.8661,,5.2883,4.1755,4.7699,225.965,235.3968,224.6128,168.641,387.1333,170.2014,197.4071,0.0337,,,0.0663,0.3144,,0.0000,0.000,23.8328,,23.8331,,0.6611,84.7656,,8.171,,1.5234E+01,,2.1419E-01,,19.2752,19.2746,0.0164,,97.922,73.080,,,,,,,,,,,,
CalCOFI,2007SR,013,14,2007_013d,15-Jul-2020 13:06:24,15-Jul-2020 05:06:24,31.18043,-120.91950,093.3 080.0,093.3,080.0,6.000,6.042,,19.2757,,19.2758,,19.2758,33.5361,,33.5363,33.5364,,33.5380,33.5372,5.1800,,5.3949,5.3640,3.8653,,5.2864,4.1737,4.7689,225.952,235.3832,224.5995,168.604,387.1015,170.1244,197.3620,0.0346,,,0.0730,0.3163,,0.0000,0.000,23.8329,,23.8330,,0.6607,84.7746,,8.171,,1.5234E+01,,1.8102E-01,,19.2746,19.2747,0.0205,,97.916,73.065,,,,,,,,,,,,
CalCOFI,2007SR,013,14,2007_013d,15-Jul-2020 13:06:27,15-Jul-2020 05:06:27,31.18042,-120.91950,093.3 080.0,093.3,080.0,7.000,7.049,,19.2757,,19.2753,,19.2755,33.5361,,33.5363,33.5363,,33.5379,33.5371,5.1773,,5.3921,5.3612,3.8653,,5.2864,4.1737,4.7675,225.838,235.2642,224.4824,168.607,386.8227,170.1307,197.3066,0.0343,,,0.0708,0.3208,,0.0000,0.014,23.8329,,23.8332,,0.6610,84.7691,,8.171,,1.5010E+01,,1.4815E-01,,19.2744,19.2741,0.0246,,97.866,73.065,,,,,,,,,,,,
CalCOFI,2007SR,013,14,2007_013d,15-Jul-2020 13:06:29,15-Jul-2020 05:06:29,31.18042,-120.91950,093.3 080.0,093.3,080.0,8.000,8.056,,19.2745,,19.2747,,19.2746,33.5361,,33.5363,33.5365,,33.5381,33.5372,5.1782,,5.3930,5.3622,3.8628,,5.2805,4.1680,4.7651,225.874,235.3018,224.5194,168.499,386.9107,169.9059,197.2127,0.0346,,,0.0730,0.3218,,0.0000,0.042,23.8332,,23.8335,,0.6627,84.7328,,8.171,,1.5236E+01,,1.2853E-01,,19.2731,19.2733,0.0287,,97.880,73.018,,,,,,,,,,,,
CalCOFI,2007SR,013,14,2007_013d,15-Jul-2020 13:06:30,15-Jul-2020 05:06:30,31.18044,-120.91950,093.3 080.0,093.3,080.0,9.000,9.063,,19.2755,,19.2753,,19.2754,33.5361,,33.5363,33.5364,,33.5380,33.5372,5.1822,,5.3972,5.3663,3.8658,,5.2876,4.1749,4.7706,226.051,235.4865,224.7011,168.628,387.3437,170.1744,197.4378,0.0344,,,0.0715,0.3212,,0.0000,0.025,23.8331,,23.8333,,0.6609,84.7710,,8.171,,1.5234E+01,,1.1890E-01,,19.2739,19.2736,0.0328,,97.958,73.074,,,,,,,,,,,,
CalCOFI,2007SR,013,14,2007_013d,15-Jul-2020 13:06:33,15-Jul-2020 05:06:33,31.18044,-120.91950,093.3 080.0,093.3,080.0,10.000,10.070,,19.2766,,19.2760,,19.2763,33.5359,,33.5361,33.5360,,33.5376,33.5369,5.1783,,5.3931,5.3623,3.8648,,5.2852,4.1726,4.7675,225.882,235.3101,224.5276,168.582,386.9303,170.0786,197.3031,0.0376,,0.0176,0.0946,0.3203,,0.0000,0.001,23.8326,,23.8329,,0.6608,84.7735,,8.171,,1.5234E+01,,9.3031E-02,,19.2749,19.2742,0.0369,,97.887,73.055,,,,,,,,,,,,
CalCOFI,2007SR,013,14,2007_013d,15-Jul-2020 13:06:35,15-Jul-2020 05:06:35,31.18043,-120.91950,093.3 080.0,093.3,080.0,11.000,11.077,,19.2770,,19.2769,,19.2770,33.5354,,33.5356,33.5355,,33.5371,33.5364,5.1779,,5.3927,5.3618,3.8652,,5.2862,4.1735,4.7677,225.861,235.2882,224.5061,168.604,386.8789,170.1244,197.3153,0.0355,,,0.0796,0.3202,,0.0000,0.000,23.8322,,23.8323,,0.6614,84.7598,,8.171,,1.5234E+01,,8.2513E-02,,19.2750,19.2750,0.0410,,97.878,73.065,11,19.271,33.5202,5.383,234.93,0.095,0.017,0.0,0.00,0.09,0.23,1.47
CalCOFI,2007SR,013,14,2007_013d,15-Jul-2020 13:06:37,15-Jul-2020 05:06:37,31.18043,-120.91950,093.3 080.0,093.3,080.0,12.000,12.084,,19.2765,,19.2763,,19.2764,33.5356,,33.5358,33.5358,,33.5374,33.5366,5.1776,,5.3924,5.3615,3.8656,,5.2871,4.1744,4.7680,225.847,235.2736,224.4917,168.619,386.8447,170.1557,197.3237,0.0345,,,0.0723,0.3197,,0.0000,0.000,23.8325,,23.8328,,0.6609,84.7712,,8.171,,1.5234E+01,,6.9366E-02,,19.2743,19.2742,0.0451,,97.871,73.071,,,,,,,,,,,,
CalCOFI,2007SR,013,14,2007_013d,15-Jul-2020 13:06:39,15-Jul-2020 05:06:39,31.18044,-120.91950,093.3 080.0,093.3,080.0,13.000,13.091,,19.2758,,19.2755,,19.2757,33.5361,,33.5363,33.5364,,33.5380,33.5372,5.1823,,5.3973,5.3664,3.8616,,5.2776,4.1653,4.7659,226.056,235.4918,224.7063,168.445,387.3559,169.7935,197.2499,0.0351,,,0.0767,0.3201,,0.0000,0.000,23.8331,,23.8334,,0.6609,84.7716,,8.171,,1.5234E+01,,6.8043E-02,,19.2734,19.2732,0.0491,,97.961,72.995,,,,,,,,,,,,
CalCOFI,2007SR,013,14,2007_013d,15-Jul-2020 13:06:40,15-Jul-2020 05:06:40,31.18044,-120.91950,093.3 080.0,093.3,080.0,14.000,14.098,,19.2760,,19.2760,,19.2760,33.5360,,33.5362,33.5363,,33.5379,33.5371,5.1812,,5.3961,5.3653,3.8632,,5.2814,4.1689,4.7671,226.007,235.4406,224.6560,168.512,387.2360,169.9330,197.2945,0.0351,,,0.0767,0.3203,,0.0000,0.001,23.8331,,23.8333,,0.6611,84.7657,,8.171,,1.5234E+01,,5.2231E-02,,19.2735,19.2735,0.0532,,97.940,73.025,,,,,,,,,,,,
CalCOFI,2007SR,013,14,2007_013d,15-Jul-2020 13:06:42,15-Jul-2020 05:06:42,31.18044,-120.91950,093.3 080.0,093.3,080.0,15.000,15.105,,19.2764,,19.2761,,19.2763,33.5359,,33.5361,33.5363,,33.5379,33.5370,5.1792,,5.3940,5.3632,3.8635,,5.2821,4.1696,4.7664,225.920,235.3498,224.5666,168.527,387.0233,169.9642,197.2654,0.0353,,,0.0781,0.3206,,0.0000,0.009,23.8330,,23.8334,,0.6638,84.7091,,8.171,,1.5234E+01,,4.2432E-02,,19.2737,19.2734,0.0573,,97.903,73.031,,,,,,,,,,,,
CalCOFI,2007SR,013,14,2007_013d,15-Jul-2020 13:06:45,15-Jul-2020 05:06:45,31.18044,-120.91950,093.3 080.0,093.3,080.0,16.000,16.112,,19.2756,,19.2755,,19.2756,33.5362,,33.5364,33.5367,,33.5383,33.5374,5.1818,,5.3968,5.3659,3.8640,,5.2833,4.1707,4.7683,226.034,235.4688,224.6837,168.551,387.3021,170.0141,197.3489,0.0346,,,0.0730,0.3199,,0.0000,0.000,23.8335,,23.8338,,0.6616,84.7558,,8.171,,1.5234E+01,,3.5529E-02,,19.2727,19.2726,0.0614,,97.951,73.041,,,,,,,,,,,,
CalCOFI,2007SR,013,14,2007_013d,15-Jul-2020 13:06:47,15-Jul-2020 05:06:47,31.18044,-120.91952,093.3 080.0,093.3,080.0,17.000,17.119,,19.2755,,19.2754,,19.2755,33.5364,,33.5366,33.5368,,33.5384,33.5375,5.1830,,5.3980,5.3672,3.8645,,5.2845,4.1719,4.7696,226.085,235.5220,224.7361,168.572,387.4268,170.0578,197.3970,0.0344,,,0.0715,0.3196,,0.0000,0.000,23.8336,,23.8340,,0.6608,84.7736,,8.171,,1.5234E+01,,2.6933E-02,,19.2725,19.2723,0.0655,,97.973,73.050,,,,,,,,,,,,
CalCOFI,2007SR,013,14,2007_013d,15-Jul-2020 13:06:49,15-Jul-2020 05:06:49,31.18044,-120.91950,093.3 080.0,093.3,080.0,18.000,18.126,,19.2764,,19.2761,,19.2763,33.5364,,33.5366,33.5366,,33.5382,33.5374,5.1822,,5.3972,5.3663,3.8650,,5.2857,4.1730,4.7697,226.051,235.4865,224.7011,168.591,387.3437,170.0974,197.3993,0.0348,,,0.0745,0.3191,,0.0000,0.000,23.8335,,23.8337,,0.6611,84.7663,,8.171,,1.5234E+01,,2.0200E-02,,19.2731,19.2728,0.0696,,97.960,73.059,,,,,,,,,,,,
CalCOFI,2007SR,013,14,2007_013d,15-Jul-2020 13:06:50,15-Jul-2020 05:06:50,31.18044,-120.91950,093.3 080.0,093.3,080.0,19.000,19.133,,19.2759,,19.2758,,19.2759,33.5363,,33.5365,33.5365,,33.5381,33.5373,5.1804,,5.3953,5.3644,3.8652,,5.2862,4.1735,4.7690,225.970,235.4020,224.6180,168.603,387.1455,170.1224,197.3702,0.0350,,,0.0759,0.3181,,0.0000,0.000,23.8335,,23.8337,,0.6630,84.7269,,8.171,,1.5234E+01,,1.4141E-02,,19.2725,19.2724,0.0737,,97.924,73.064,,,,,,,,,,,,
CalCOFI,2007SR,013,14,2007_013d,15-Jul-2020 13:06:52,15-Jul-2020 05:06:52,31.18044,-120.91950,093.3 080.0,093.3,080.0,20.000,20.140,,19.2764,,19.2762,,19.2763,33.5359,,33.5361,33.5364,,33.5380,33.5371,5.1805,,5.3954,5.3645,3.8628,,5.2805,4.1680,4.7663,225.974,235.4062,224.6221,168.496,387.1553,169.8996,197.2609,0.0348,,,0.0745,0.3153,,0.0000,0.000,23.8332,,23.8336,,0.6606,84.7770,,8.171,,1.5234E+01,,6.3465E-03,,19.2728,19.2726,0.0778,,97.926,73.018,,,,,,,,,,,,
CalCOFI,2007SR,013,14,2007_013d,15-Jul-2020 13:06:56,15-Jul-2020 05:06:56,31.18044,-120.91952,093.3 080.0,093.3,080.0,21.000,21.147,,19.2765,,19.2764,,19.2765,33.5359,,33.5361,33.5363,,33.5379,33.5370,5.1757,,5.3904,5.3596,3.8629,,5.2807,4.1682,4.7639,225.768,235.1911,224.4106,168.499,386.6515,169.9059,197.1583,0.0342,,,0.0700,0.3120,,0.0000,0.000,23.8332,,23.8335,,0.6610,84.7694,,8.171,,1.5234E+01,,4.3881E-05,,19.2728,19.2727,0.0819,,97.837,73.020,,,,,,,,,,,,
CalCOFI,2007SR,013,14,2007_013d,15-Jul-2020 13:06:58,15-Jul-2020 05:06:58,31.18044,-120.91952,093.3 080.0,093.3,080.0,22.000,22.154,,19.2767,,19.2770,,19.2769,33.5358,,33.5360,33.5361,,33.5377,33.5369,5.1747,,5.3893,5.3585,3.8633,,5.2817,4.1691,4.7638,225.722,235.1431,224.3633,168.518,386.5390,169.9454,197.1544,0.0344,,,0.0715,0.3110,,0.0000,0.000,23.8331,,23.8332,,0.6611,84.7668,,8.171,,1.5234E+01,,1.5523E-04,,19.2727,19.2731,0.0860,,97.818,73.029,,,,,,,,,,,,
CalCOFI,2007SR,013,14,2007_013d,15-Jul-2020 13:06:59,15-Jul-2020 05:06:59,31.18044,-120.91951,093.3 080.0,093.3,080.0,23.000,23.161,,19.2774,,19.2772,,19.2773,33.5355,,33.5357,33.5357,,33.5373,33.5365,5.1788,,5.3936,5.3628,3.8635,,5.2821,4.1696,4.7662,225.904,235.3331,224.5502,168.526,386.9841,169.9621,197.2562,0.0342,,,0.0700,0.3104,,0.0000,0.000,23.8327,,23.8330,,0.6615,84.7568,,8.171,,1.5234E+01,,1.9913E-03,,19.2733,19.2731,0.0901,,97.898,73.032,,,,,,,,,,,,
CalCOFI,2007SR,013,14,2007_013d,15-Jul-2020 13:07:00,15-Jul-2020 05:07:00,31.18044,-120.91950,093.3 080.0,093.3,080.0,24.000,24.168,,19.2775,,19.2774,,19.2775,33.5357,,33.5359,33.5361,,33.5377,33.5368,5.1812,,5.3961,5.3653,3.8636,,5.2824,4.1698,4.7676,226.007,235.4406,224.6560,168.533,387.2360,169.9767,197.3164,0.0343,,,0.0708,0.3101,,0.0000,0.000,23.8329,,23.8332,,0.6609,84.7707,,8.171,,1.5234E+01,,1.0597E-04,,19.2732,19.2731,0.0942,,97.943,73.036,,,,,,,,,,,,
CalCOFI,2007SR,013,14,2007_013d,15-Jul-2020 13:07:02,15-Jul-2020 05:07:02,31.18044,-120.91950,093.3 080.0,093.3,080.0,25.000,25.175,,19.2776,,19.2774,,19.2775,33.5358,,33.5360,33.5362,,33.5378,33.5369,5.1799,,5.3948,5.3639,3.8617,,5.2778,4.1655,4.7647,225.947,235.3780,224.5944,168.449,387.0893,169.8018,197.1981,0.0346,,,0.0730,0.3099,,0.0000,0.000,23.8330,,23.8334,,0.6614,84.7597,,8.171,,1.5234E+01,,1.0000E-12,,19.2731,19.2729,0.0983,,97.917,73.000,,,,,,,,,,,,
CalCOFI,2007SR,013,14,2007_013d,15-Jul-2020 13:07:05,15-Jul-2020 05:07:05,31.18044,-120.91952,093.3 080.0,093.3,080.0,26.000,26.182,,19.2776,,19.2775,,19.2776,33.5356,,33.5358,33.5360,,33.5376,33.5367,5.1768,,5.3915,5.3607,3.8632,,5.2814,4.1689,4.7648,225.814,235.2391,224.4578,168.516,386.7640,169.9413,197.1996,0.0340,,,0.0685,0.3100,,0.0000,0.000,23.8329,,23.8333,,0.6608,84.7721,,8.171,,1.5234E+01,,1.0000E-12,,19.2729,19.2728,0.1024,,97.859,73.028,26,19.271,33.5214,5.388,235.18,0.103,0.022,0.0,0.00,0.06,0.22,1.50
CalCOFI,2007SR,013,14,2007_013d,15-Jul-2020 13:07:08,15-Jul-2020 05:07:08,31.18044,-120.91952,093.3 080.0,093.3,080.0,27.000,27.189,,19.2774,,19.2772,,19.2773,33.5355,,33.5357,33.5360,,33.5376,33.5367,5.1790,,5.3938,5.3630,3.8637,,5.2826,4.1701,4.7666,225.911,235.3404,224.5574,168.536,387.0012,169.9829,197.2702,0.0349,,,0.0752,0.3112,,0.0000,0.000,23.8329,,23.8333,,0.6612,84.7649,,8.171,,1.5234E+01,,1.0000E-12,,19.2726,19.2724,0.1065,,97.901,73.037,,,,,,,,,,,,
CalCOFI,2007SR,013,14,2007_013d,15-Jul-2020 13:07:09,15-Jul-2020 05:07:09,31.18044,-120.91952,093.3 080.0,093.3,080.0,28.000,28.196,,19.2780,,19.2775,,19.2778,33.5342,,33.5344,33.5343,,33.5359,33.5352,5.1807,,5.3956,5.3648,3.8615,,5.2774,4.1650,4.7649,225.985,235.4176,224.6334,168.440,387.1822,169.7831,197.2083,0.0342,,,0.0700,0.3122,,0.0000,0.000,23.8318,,23.8320,,0.6610,84.7681,,8.171,,1.5234E+01,,1.0000E-12,,19.2730,19.2725,0.1106,,97.933,72.995,,,,,,,,,,,,
CalCOFI,2007SR,013,14,2007_013d,15-Jul-2020 13:07:10,15-Jul-2020 05:07:10,31.18044,-120.91950,093.3 080.0,093.3,080.0,29.000,29.204,,19.2748,,19.2743,,19.2746,33.5336,,33.5338,33.5341,,33.5357,33.5348,5.1800,,5.3949,5.3640,3.8633,,5.2817,4.1691,4.7666,225.954,235.3853,224.6015,168.521,387.1064,169.9517,197.2766,0.0345,,,0.0723,0.3139,,0.0000,0.000,23.8322,,23.8327,,0.6610,84.7695,,8.171,,1.5234E+01,,1.0000E-12,,19.2696,19.2691,0.1147,,97.914,73.025,,,,,,,,,,,,
CalCOFI,2007SR,013,14,2007_013d,15-Jul-2020 13:07:12,15-Jul-2020 05:07:12,31.18044,-120.91950,093.3 080.0,093.3,080.0,30.000,30.211,,19.2755,,19.2755,,19.2755,33.5341,,33.5343,33.5346,,33.5362,33.5353,5.1809,,5.3958,5.3650,3.8637,,5.2826,4.1701,4.7676,225.995,235.4281,224.6436,168.538,387.2067,169.9871,197.3154,0.0364,,0.0035,0.0861,0.3158,,0.0000,0.000,23.8325,,23.8329,,0.6615,84.7568,,8.171,,1.5234E+01,,1.0000E-12,,19.2701,19.2701,0.1188,,97.933,73.035,,,,,,,,,,,,
CalCOFI,2007SR,013,14,2007_013d,15-Jul-2020 13:07:16,15-Jul-2020 05:07:16,31.18044,-120.91951,093.3 080.0,093.3,080.0,31.000,31.218,,19.2749,,19.2747,,19.2748,33.5341,,33.5343,33.5346,,33.5362,33.5353,5.1797,,5.3946,5.3637,3.8628,,5.2805,4.1680,4.7659,225.942,235.3728,224.5892,168.495,387.0771,169.8976,197.2434,0.0343,,,0.0708,0.3188,,0.0000,0.000,23.8327,,23.8331,,0.6610,84.7684,,8.171,,1.5234E+01,,1.0000E-12,,19.2693,19.2692,0.1229,,97.909,73.015,,,,,,,,,,,,
CalCOFI,2007SR,013,14,2007_013d,15-Jul-2020 13:07:18,15-Jul-2020 05:07:18,31.18044,-120.91952,093.3 080.0,093.3,080.0,32.000,32.225,,19.2768,,19.2767,,19.2768,33.5348,,33.5350,33.5354,,33.5370,33.5360,5.1758,,5.3905,5.3597,3.8612,,5.2766,4.1643,4.7620,225.771,235.1942,224.4137,168.425,386.6588,169.7519,197.0828,0.0351,,,0.0767,0.3195,,0.0000,0.000,23.8328,,23.8333,,0.6614,84.7604,,8.171,,1.5234E+01,,1.0000E-12,,19.2710,19.2710,0.1270,,97.838,72.988,,,,,,,,,,,,
CalCOFI,2007SR,013,14,2007_013d,15-Jul-2020 13:07:19,15-Jul-2020 05:07:19,31.18044,-120.91950,093.3 080.0,093.3,080.0,33.000,33.232,,19.2769,,19.2772,,19.2771,33.5348,,33.5350,33.5353,,33.5369,33.5360,5.1777,,5.3925,5.3616,3.8618,,5.2781,4.1657,4.7637,225.852,235.2788,224.4968,168.452,386.8569,169.8081,197.1525,0.0345,,,0.0723,0.3191,,0.0000,0.000,23.8328,,23.8331,,0.6614,84.7599,,8.171,,1.5234E+01,,1.0000E-12,,19.2710,19.2713,0.1311,,97.874,73.000,,,,,,,,,,,,
CalCOFI,2007SR,013,14,2007_013d,15-Jul-2020 13:07:20,15-Jul-2020 05:07:20,31.18044,-120.91950,093.3 080.0,093.3,080.0,34.000,34.239,,19.2796,,19.2794,,19.2795,33.5352,,33.5354,33.5356,,33.5372,33.5363,5.1799,,5.3948,5.3639,3.8616,,5.2776,4.1653,4.7646,225.950,235.3811,224.5974,168.443,387.0966,169.7893,197.1934,0.0346,,,0.0730,0.3185,,0.0000,0.000,23.8324,,23.8328,,0.6608,84.7722,,8.171,,1.5234E+01,,1.0000E-12,,19.2735,19.2733,0.1352,,97.921,72.999,,,,,,,,,,,,
CalCOFI,2007SR,013,14,2007_013d,15-Jul-2020 13:07:22,15-Jul-2020 05:07:22,31.18044,-120.91950,093.3 080.0,093.3,080.0,35.000,35.246,,19.2794,,19.2791,,19.2793,33.5351,,33.5353,33.5355,,33.5371,33.5362,5.1814,,5.3963,5.3655,3.8612,,5.2766,4.1643,4.7649,226.014,235.4479,224.6631,168.426,387.2532,169.7540,197.2086,0.0352,,,0.0774,0.3175,,0.0000,0.000,23.8325,,23.8329,,0.6610,84.7684,,8.171,,1.5234E+01,,1.0000E-12,,19.2731,19.2728,0.1393,,97.949,72.991,,,,,,,,,,,,
CalCOFI,2007SR,013,14,2007_013d,15-Jul-2020 13:07:26,15-Jul-2020 05:07:26,31.18044,-120.91950,093.3 080.0,093.3,080.0,36.000,36.253,,19.2778,,19.2763,,19.2771,33.5346,,33.5348,33.5342,,33.5358,33.5353,5.1666,,5.3809,5.3501,3.8675,,5.2917,4.1787,4.7644,225.370,234.7756,224.0019,168.702,385.6780,170.3284,197.1652,0.0345,,,0.0723,0.3144,,0.0000,0.000,23.8325,,23.8327,,0.6611,84.7654,,8.170,,1.5234E+01,,1.0000E-12,,19.2713,19.2698,0.1434,,97.666,73.106,,,,,,,,,,,,
CalCOFI,2007SR,013,14,2007_013d,15-Jul-2020 13:07:28,15-Jul-2020 05:07:28,31.18044,-120.91950,093.3 080.0,093.3,080.0,37.000,37.260,,19.1516,,19.0990,,19.1253,33.5018,,33.5020,33.4846,,33.4862,33.4941,5.3032,,5.5236,5.4923,3.8955,,5.3585,4.2428,4.8676,231.328,240.9952,230.1194,169.921,400.2505,172.8656,201.4925,0.0359,,,0.0825,0.3132,,0.0000,0.000,23.8396,,23.8398,,0.6632,84.7205,,8.172,,1.5234E+01,,1.0000E-12,,19.1450,19.0924,0.1475,,99.994,73.371,,,,,,,,,,,,
CalCOFI,2007SR,013,14,2007_013d,15-Jul-2020 13:07:29,15-Jul-2020 05:07:29,31.18044,-120.91950,093.3 080.0,093.3,080.0,38.000,38.268,,18.7170,,18.6438,,18.6804,33.4275,,33.4277,33.4076,,33.4092,33.4185,5.4240,,5.6498,5.6180,3.9264,,5.4323,4.3134,4.9657,236.581,246.4788,235.5129,171.260,413.0985,175.6526,205.5828,0.0376,,0.0176,0.0946,0.3129,,0.0000,0.000,23.8925,,23.8955,,0.6735,84.5036,,8.174,,1.5234E+01,,1.0000E-12,,18.7103,18.6372,0.1516,,101.397,73.292,,,,,,,,,,,,
CalCOFI,2007SR,013,14,2007_013d,15-Jul-2020 13:07:30,15-Jul-2020 05:07:30,31.18044,-120.91950,093.3 080.0,093.3,080.0,39.000,39.275,,18.3556,,18.3163,,18.3360,33.3848,,33.3850,33.3774,,33.3790,33.3820,5.4653,,5.6930,5.6610,3.9502,,5.4891,4.3678,5.0144,238.370,248.3463,237.3498,172.289,417.4742,177.7944,207.5721,0.0361,,,0.0840,0.3131,,0.0000,0.000,23.9497,,23.9537,,0.6791,84.3861,,8.175,,1.5234E+01,,1.0000E-12,,18.3489,18.3096,0.1556,,101.453,73.270,,,,,,,,,,,,
CalCOFI,2007SR,013,14,2007_013d,15-Jul-2020 13:07:31,15-Jul-2020 05:07:31,31.18044,-120.91950,093.3 080.0,093.3,080.0,40.000,40.282,,18.0899,,18.1517,,18.1208,33.3526,,33.3528,33.3792,,33.3808,33.3668,5.4659,,5.6936,5.6617,3.9654,,5.5254,4.4026,5.0322,238.388,248.3651,237.3683,172.944,417.5182,179.1577,208.2630,0.0385,,0.0282,0.1009,0.3141,,0.0000,0.000,23.9904,,23.9956,,0.6807,84.3534,,8.176,,1.5234E+01,,1.0000E-12,,18.0830,18.1448,0.1596,,100.936,73.324,,,,,,,,,,,,
CalCOFI,2007SR,013,14,2007_013d,15-Jul-2020 13:07:37,15-Jul-2020 05:07:37,31.18044,-120.91950,093.3 080.0,093.3,080.0,41.000,41.289,,18.2796,,18.2855,,18.2826,33.3901,,33.3903,33.3768,,33.3784,33.3844,5.4708,,5.6987,5.6668,4.0018,,5.6123,4.4858,5.0763,238.606,248.5927,237.5921,174.537,418.0514,182.4733,210.0327,0.0389,,0.0329,0.1037,0.3212,,0.0000,0.025,23.9726,,23.9610,,0.6780,84.4078,,8.171,,1.5234E+01,,1.0000E-12,,18.2725,18.2784,0.1640,,101.410,74.183,41,16.720,33.2589,,260.57,0.114,0.020,0.0,0.00,0.09,0.27,1.45
CalCOFI,2007SR,013,14,2007_013d,15-Jul-2020 13:07:38,15-Jul-2020 05:07:38,31.18044,-120.91950,093.3 080.0,093.3,080.0,42.000,42.296,,17.2979,,17.1028,,17.2004,33.2369,,33.2371,33.2042,,33.2058,33.2215,5.6791,,5.9164,5.8836,4.0917,,5.8269,4.6914,5.2875,247.664,258.0483,246.8925,178.435,440.2060,190.5866,218.7396,0.0382,,0.0246,0.0988,0.3238,,0.0000,0.096,24.0919,,24.1130,,0.6840,84.2830,,8.179,,1.5234E+01,,1.0000E-12,,17.2910,17.0959,0.1679,,103.224,74.077,,,,,,,,,,,,
CalCOFI,2007SR,013,14,2007_013d,15-Jul-2020 13:07:39,15-Jul-2020 05:07:39,31.18044,-120.91950,093.3 080.0,093.3,080.0,43.000,43.303,,16.7368,,16.7085,,16.7227,33.2337,,33.2339,33.2366,,33.2382,33.2361,5.7449,,5.9851,5.9521,4.1254,,5.9074,4.7684,5.3603,250.498,261.0068,249.8023,179.880,447.1375,193.5942,221.6983,0.0385,,0.0282,0.1009,0.3252,,0.0000,0.135,24.2221,,24.2309,,0.6804,84.3575,,8.182,,1.5234E+01,,1.0000E-12,,16.7299,16.7015,0.1717,,103.298,74.138,,,,,,,,,,,,
CalCOFI,2007SR,013,14,2007_013d,15-Jul-2020 13:07:40,15-Jul-2020 05:07:40,31.18044,-120.91950,093.3 080.0,093.3,080.0,44.000,44.310,,16.7123,,16.7075,,16.7099,33.2344,,33.2346,33.2357,,33.2373,33.2360,5.7463,,5.9866,5.9535,4.1264,,5.9098,4.7707,5.3621,250.559,261.0704,249.8650,179.925,447.2867,193.6878,221.7764,0.0370,,0.0105,0.0904,0.3262,,0.0000,0.162,24.2283,,24.2305,,0.6781,84.4073,,8.182,,1.5234E+01,,1.0000E-12,,16.7052,16.7004,0.1754,,103.275,74.155,,,,,,,,,,,,
CalCOFI,2007SR,013,14,2007_013d,15-Jul-2020 13:07:43,15-Jul-2020 05:07:43,31.18044,-120.91950,093.3 080.0,093.3,080.0,45.000,45.318,,16.7470,,16.7393,,16.7432,33.2430,,33.2432,33.2438,,33.2454,33.2443,5.7243,,5.9636,5.9306,4.1361,,5.9329,4.7929,5.3618,249.601,260.0704,248.8813,180.349,444.9436,194.5704,221.7259,0.0373,,0.0141,0.0925,0.3266,,0.0000,0.173,24.2269,,24.2293,,0.6771,84.4270,,8.181,,1.5234E+01,,1.0000E-12,,16.7397,16.7321,0.1794,,102.954,74.379,,,,,,,,,,,,
CalCOFI,2007SR,013,14,2007_013d,15-Jul-2020 13:07:47,15-Jul-2020 05:07:47,31.18044,-120.91950,093.3 080.0,093.3,080.0,46.000,46.325,,16.7569,,16.7209,,16.7389,33.2418,,33.2420,33.2414,,33.2430,33.2425,5.7029,,5.9413,5.9084,4.1664,,6.0052,4.8622,5.3853,248.666,259.0943,247.9213,181.671,442.6567,197.3219,222.6216,0.0384,,0.0270,0.1002,0.3254,,0.0000,0.140,24.2237,,24.2318,,0.6777,84.4142,,8.177,,1.5234E+01,,1.0000E-12,,16.7494,16.7134,0.1835,,102.587,74.896,,,,,,,,,,,,
CalCOFI,2007SR,013,14,2007_013d,15-Jul-2020 13:07:48,15-Jul-2020 05:07:48,31.18044,-120.91950,093.3 080.0,093.3,080.0,47.000,47.332,,16.6022,,16.5811,,16.5917,33.2429,,33.2431,33.2457,,33.2473,33.2452,5.7567,,5.9975,5.9644,4.1845,,6.0485,4.9036,5.4340,251.006,261.5371,250.3239,182.451,448.3800,198.9454,224.6347,0.0369,,0.0094,0.0897,0.3246,,0.0000,0.118,24.2604,,24.2675,,0.6771,84.4272,,8.179,,1.5234E+01,,1.0000E-12,,16.5947,16.5736,0.1872,,103.247,75.019,,,,,,,,,,,,
CalCOFI,2007SR,013,14,2007_013d,15-Jul-2020 13:07:49,15-Jul-2020 05:07:49,31.18044,-120.91950,093.3 080.0,093.3,080.0,48.000,48.339,,16.4696,,16.4508,,16.4602,33.2367,,33.2369,33.2338,,33.2354,33.2362,5.7976,,6.0402,6.0070,4.1948,,6.0730,4.9271,5.4671,252.780,263.3889,252.1454,182.899,452.7190,199.8779,226.0117,0.0377,,0.0188,0.0953,0.3244,,0.0000,0.113,24.2863,,24.2884,,0.6766,84.4394,,8.182,,1.5234E+01,,1.0000E-12,,16.4619,16.4431,0.1909,,103.707,75.009,,,,,,,,,,,,
CalCOFI,2007SR,013,14,2007_013d,15-Jul-2020 13:07:50,15-Jul-2020 05:07:50,31.18044,-120.91950,093.3 080.0,093.3,080.0,49.000,49.346,,16.2220,,16.2104,,16.2162,33.2435,,33.2437,33.2437,,33.2453,33.2445,5.8470,,6.0918,6.0584,4.2156,,6.1227,4.9747,5.5166,254.921,265.6239,254.3437,183.791,457.9556,201.7345,228.0391,0.0380,,0.0223,0.0974,0.3248,,0.0000,0.124,24.3482,,24.3510,,0.6747,84.4778,,8.184,,1.5234E+01,,1.0000E-12,,16.2143,16.2027,0.1946,,104.093,75.031,,,,,,,,,,,,
CalCOFI,2007SR,013,14,2007_013d,15-Jul-2020 13:07:54,15-Jul-2020 05:07:54,31.18044,-120.91950,093.3 080.0,093.3,080.0,50.000,50.354,,16.3700,,16.3386,,16.3543,33.2527,,33.2529,33.2550,,33.2566,33.2548,5.7541,,5.9948,5.9617,4.2201,,6.1334,4.9850,5.4734,250.875,261.4003,250.1894,183.991,448.0596,202.1508,226.1701,0.0386,,0.0293,0.1016,0.3299,,0.0000,0.263,24.3214,,24.3304,,0.6734,84.5057,,8.181,,1.5282E+01,,1.0000E-12,,16.3620,16.3306,0.1987,,102.738,75.305,,,,,,,,,,,,